When you browse on this site, cookies collect data to enhance your experience and personalize the content and advertising you see.
Visit our Privacy Policy to learn more. By continuing to use the site, you agree to this use of cookies and data.
  • In Lithuania
  • List of Countries
  • For 7 days
  • Water Temperature
  • Weather Map
  • Weather Widgets
  • user-avatar
    Login

    Hourly Weather Mérida

    Today, 31 May, Sunday

    Time Temperature Precipitation Wind Pressure Humidity
    00:00 +16°C° 0.5 mm 1 mps 594 mmHg 91%
    01:00 +16°C° 0 mm 1 mps 593 mmHg 92%
    02:00 +16°C° 0.2 mm 1 mps 593 mmHg 91%
    03:00 +16°C° 0.2 mm 1 mps 593 mmHg 91%
    04:00 +16°C° 0.2 mm 1 mps 593 mmHg 90%
    05:00 +16°C° 0 mm 1 mps 594 mmHg 89%
    06:00 +18°C° 0 mm 1 mps 594 mmHg 87%
    07:00 +18°C° 0 mm 1 mps 595 mmHg 86%
    08:00 +19°C° 0.2 mm 1 mps 596 mmHg 85%
    09:00 +20°C° 0.2 mm 1 mps 596 mmHg 83%
    10:00 +21°C° 0.2 mm 1 mps 597 mmHg 82%
    11:00 +20°C° 1.1 mm 1 mps 596 mmHg 85%
    12:00 +20°C° 1.1 mm 1 mps 595 mmHg 89%
    13:00 +20°C° 1.1 mm 1 mps 595 mmHg 92%
    14:00 +19°C° 1.9 mm 1 mps 594 mmHg 93%
    15:00 +19°C° 1.9 mm 1 mps 594 mmHg 94%
    16:00 +19°C° 1.9 mm 1 mps 594 mmHg 95%
    17:00 +18°C° 3.1 mm 1 mps 594 mmHg 95%
    18:00 +18°C° 3.1 mm 1 mps 594 mmHg 96%
    19:00 +18°C° 3.1 mm 1 mps 594 mmHg 96%
    20:00 +16°C° 2.3 mm 1 mps 594 mmHg 95%
    21:00 +16°C° 2.3 mm 1 mps 594 mmHg 95%
    22:00 +16°C° 2.3 mm 1 mps 595 mmHg 94%
    23:00 +16°C° 0.7 mm 1 mps 594 mmHg 93%

    Tomorrow, 1 June, Monday

    Time Temperature Precipitation Wind Pressure Humidity
    00:00 +16°C° 0.7 mm 1 mps 594 mmHg 92%
    01:00 +16°C° 0.7 mm 2 mps 594 mmHg 92%
    02:00 +15°C° 0.1 mm 2 mps 593 mmHg 92%
    03:00 +15°C° 0.1 mm 2 mps 593 mmHg 91%
    04:00 +15°C° 0.1 mm 2 mps 593 mmHg 91%
    05:00 +16°C° 0 mm 2 mps 594 mmHg 90%
    06:00 +16°C° 0 mm 1 mps 594 mmHg 89%
    07:00 +18°C° 0 mm 1 mps 595 mmHg 89%
    08:00 +18°C° 0.1 mm 1 mps 595 mmHg 88%
    09:00 +18°C° 0.1 mm 1 mps 595 mmHg 87%
    10:00 +19°C° 0.1 mm 1 mps 596 mmHg 87%
    11:00 +19°C° 0.5 mm 2 mps 596 mmHg 85%
    12:00 +19°C° 0.5 mm 2 mps 595 mmHg 83%
    13:00 +20°C° 0.5 mm 2 mps 595 mmHg 81%
    14:00 +21°C° 0.7 mm 1 mps 594 mmHg 83%
    15:00 +21°C° 0.7 mm 1 mps 594 mmHg 85%
    16:00 +20°C° 0.7 mm 1 mps 593 mmHg 86%
    17:00 +19°C° 0.9 mm 1 mps 593 mmHg 89%
    18:00 +18°C° 0.9 mm 1 mps 593 mmHg 92%
    19:00 +16°C° 0.9 mm 1 mps 593 mmHg 95%
    20:00 +16°C° 0.3 mm 1 mps 593 mmHg 93%
    21:00 +16°C° 0.3 mm 1 mps 593 mmHg 90%
    22:00 +15°C° 0.3 mm 1 mps 594 mmHg 88%
    23:00 +15°C° 0 mm 1 mps 593 mmHg 88%

    Day after tomorrow, 2 June, Tuesday

    Time Temperature Precipitation Wind Pressure Humidity
    00:00 +15°C° 0 mm 1 mps 593 mmHg 88%
    01:00 +14°C° 0 mm 2 mps 592 mmHg 88%
    02:00 +14°C° 0 mm 1 mps 592 mmHg 87%
    03:00 +14°C° 0 mm 1 mps 592 mmHg 87%
    04:00 +14°C° 0 mm 1 mps 592 mmHg 86%
    05:00 +15°C° 0 mm 1 mps 593 mmHg 84%
    06:00 +16°C° 0 mm 1 mps 593 mmHg 82%
    07:00 +18°C° 0 mm 1 mps 594 mmHg 80%
    08:00 +20°C° 0.1 mm 1 mps 595 mmHg 77%
    09:00 +20°C° 0.1 mm 2 mps 596 mmHg 73%
    10:00 +21°C° 0.1 mm 2 mps 597 mmHg 70%
    11:00 +21°C° 1.1 mm 2 mps 596 mmHg 77%
    12:00 +21°C° 1.1 mm 1 mps 595 mmHg 83%
    13:00 +20°C° 1.1 mm 1 mps 594 mmHg 90%
    14:00 +20°C° 1 mm 1 mps 593 mmHg 90%
    15:00 +20°C° 1 mm 1 mps 593 mmHg 90%
    16:00 +20°C° 1 mm 1 mps 593 mmHg 90%
    17:00 +19°C° 0.4 mm 1 mps 592 mmHg 92%
    18:00 +16°C° 0.4 mm 0 mps 592 mmHg 94%
    19:00 +15°C° 0.4 mm 0 mps 592 mmHg 96%
    20:00 +15°C° 0.1 mm 0 mps 592 mmHg 95%
    21:00 +15°C° 0.1 mm 1 mps 593 mmHg 94%
    22:00 +15°C° 0.1 mm 1 mps 593 mmHg 93%
    23:00 +15°C° 0 mm 1 mps 592 mmHg 93%

    3 June, Wednesday

    Time Temperature Precipitation Wind Pressure Humidity
    00:00 +15°C° 0 mm 1 mps 592 mmHg 93%
    01:00 +14°C° 0 mm 1 mps 592 mmHg 92%
    02:00 +14°C° 0 mm 1 mps 592 mmHg 92%
    03:00 +14°C° 0 mm 1 mps 591 mmHg 92%
    04:00 +14°C° 0 mm 1 mps 591 mmHg 92%
    05:00 +15°C° 0 mm 1 mps 592 mmHg 90%
    06:00 +16°C° 0 mm 1 mps 593 mmHg 89%
    07:00 +18°C° 0 mm 1 mps 594 mmHg 87%
    08:00 +19°C° 0.3 mm 1 mps 594 mmHg 85%
    09:00 +20°C° 0.3 mm 1 mps 595 mmHg 83%
    10:00 +21°C° 0.3 mm 1 mps 596 mmHg 81%
    11:00 +21°C° 1.1 mm 1 mps 595 mmHg 82%
    12:00 +21°C° 1.1 mm 1 mps 594 mmHg 83%
    13:00 +21°C° 1.1 mm 1 mps 594 mmHg 84%
    14:00 +21°C° 0.9 mm 1 mps 593 mmHg 85%
    15:00 +21°C° 0.9 mm 1 mps 593 mmHg 86%
    16:00 +20°C° 0.9 mm 1 mps 592 mmHg 88%
    17:00 +19°C° 1 mm 1 mps 592 mmHg 90%
    18:00 +18°C° 1 mm 1 mps 592 mmHg 93%
    19:00 +16°C° 1 mm 1 mps 592 mmHg 96%
    20:00 +16°C° 0.4 mm 1 mps 592 mmHg 93%
    21:00 +16°C° 0.4 mm 1 mps 592 mmHg 91%
    22:00 +15°C° 0.4 mm 1 mps 593 mmHg 89%
    23:00 +15°C° 0.1 mm 1 mps 592 mmHg 89%

    4 June, Thursday

    Time Temperature Precipitation Wind Pressure Humidity
    00:00 +15°C° 0.1 mm 1 mps 592 mmHg 90%
    01:00 +15°C° 0.1 mm 1 mps 591 mmHg 90%
    02:00 +15°C° 0 mm 2 mps 591 mmHg 90%
    03:00 +15°C° 0 mm 2 mps 591 mmHg 91%
    04:00 +14°C° 0 mm 2 mps 591 mmHg 91%
    05:00 +15°C° 0 mm 1 mps 592 mmHg 88%
    06:00 +16°C° 0 mm 1 mps 593 mmHg 85%
    07:00 +18°C° 0 mm 1 mps 594 mmHg 82%
    08:00 +19°C° 0 mm 1 mps 594 mmHg 76%
    09:00 +19°C° 0 mm 2 mps 595 mmHg 70%
    10:00 +21°C° 0 mm 2 mps 596 mmHg 64%
    11:00 +21°C° 0.2 mm 2 mps 595 mmHg 68%
    12:00 +21°C° 0.2 mm 2 mps 595 mmHg 71%
    13:00 +21°C° 0.2 mm 2 mps 595 mmHg 74%
    14:00 +21°C° 0.5 mm 1 mps 594 mmHg 79%
    15:00 +20°C° 0.5 mm 1 mps 593 mmHg 85%
    16:00 +20°C° 0.5 mm 1 mps 593 mmHg 90%
    17:00 +19°C° 0.3 mm 1 mps 593 mmHg 91%
    18:00 +16°C° 0.3 mm 0 mps 593 mmHg 93%
    19:00 +15°C° 0.3 mm 0 mps 593 mmHg 94%
    20:00 +15°C° 0 mm 0 mps 593 mmHg 92%
    21:00 +15°C° 0 mm 1 mps 593 mmHg 91%
    22:00 +15°C° 0 mm 1 mps 593 mmHg 89%
    23:00 +14°C° 0 mm 1 mps 593 mmHg 85%

    5 June, Friday

    Time Temperature Precipitation Wind Pressure Humidity
    00:00 +14°C° 0 mm 1 mps 592 mmHg 80%
    01:00 +13°C° 0 mm 2 mps 592 mmHg 75%
    02:00 +13°C° 0 mm 2 mps 592 mmHg 70%
    03:00 +13°C° 0 mm 2 mps 591 mmHg 65%
    04:00 +13°C° 0 mm 2 mps 591 mmHg 60%
    05:00 +14°C° 0 mm 2 mps 592 mmHg 59%
    06:00 +15°C° 0 mm 2 mps 593 mmHg 58%
    07:00 +16°C° 0 mm 2 mps 594 mmHg 57%
    08:00 +18°C° 0 mm 2 mps 595 mmHg 56%
    09:00 +20°C° 0 mm 2 mps 596 mmHg 56%
    10:00 +23°C° 0 mm 2 mps 597 mmHg 56%
    11:00 +23°C° 0.1 mm 2 mps 596 mmHg 58%
    12:00 +23°C° 0.1 mm 2 mps 596 mmHg 60%
    13:00 +22°C° 0.1 mm 3 mps 596 mmHg 62%
    14:00 +23°C° 0.4 mm 2 mps 595 mmHg 68%
    15:00 +21°C° 0.4 mm 2 mps 594 mmHg 75%
    16:00 +21°C° 0.4 mm 1 mps 593 mmHg 81%
    17:00 +19°C° 0.4 mm 1 mps 593 mmHg 85%
    18:00 +18°C° 0.4 mm 1 mps 593 mmHg 89%
    19:00 +16°C° 0.4 mm 1 mps 593 mmHg 93%
    20:00 +16°C° 0.1 mm 1 mps 593 mmHg 91%
    21:00 +16°C° 0.1 mm 1 mps 593 mmHg 89%
    22:00 +15°C° 0.1 mm 2 mps 594 mmHg 86%
    23:00 +15°C° 0 mm 2 mps 593 mmHg 87%
    Show more